Meteo Giornale » Osservazioni meteo Spagna » Palma De Mallorca-Son San Juan
ore: 13:00 - Osservazioni Meteo Palma De Mallorca-Son San Juan
Lat. 39° 33' N Lon. 2° 44' E Alt. 4 metri s.l.m.
31 °C
Poco Nuvoloso
Temp. 24 Ore
22 °C
31 °C
Ovest/Sud-Ovest
11.1 Km/h
Dew point 21 °C
Umidità 55 %
Visibilità 10 Km
Il sole sorge alle ore 07:17
Il sole tramonta alle ore 20:20
| Data e Ora | Cielo e Fenomeni | T °C | DP °C | Um. % | Pres. hPa | Vis. km | Vento km/h | |
|---|---|---|---|---|---|---|---|---|
| Oggi h: 13:00 | Poco Nuvoloso | 31 | 21 | 55 | 1019 | 10 | O/SO 11.1 | |
| Oggi h: 12:30 | Poco Nuvoloso | 31 | 21 | 55 | 1020 | 10 | N 3.7 | |
| Oggi h: 12:00 | Poco Nuvoloso | 31 | 20 | 52 | 1020 | 10 | E 7.4 | |
| Oggi h: 11:30 | Poco Nuvoloso | 30 | 20 | 55 | 1020 | 10 | E/NE 7.4 | |
| Oggi h: 11:00 | Poco Nuvoloso | 29 | 21 | 62 | 1020 | 10 | E/SE 11.1 | |
| Oggi h: 10:30 | Poco Nuvoloso | 29 | 21 | 62 | 1020 | 10 | E/SE 9.3 | |
| Oggi h: 10:00 | Poco Nuvoloso | 28 | 21 | 65 | 1020 | 10 | E/NE 13 | |
| Oggi h: 09:30 | Poco Nuvoloso | 27 | 21 | 69 | 1019 | 10 | E/NE 13 | |
| Oggi h: 09:00 | Poco Nuvoloso | 26 | 21 | 73 | 1019 | 10 | E 11.1 | |
| Oggi h: 08:30 | Poco Nuvoloso | 25 | 22 | 83 | 1019 | 10 | NE 9.3 | |
| Oggi h: 08:00 | Poco Nuvoloso | 24 | 21 | 83 | 1019 | 10 | NE 11.1 | |
| Oggi h: 07:30 | Poco Nuvoloso | 23 | 22 | 94 | 1018 | 10 | E/NE 11.1 | |
| Oggi h: 07:00 | Poco Nuvoloso | 23 | 22 | 94 | 1018 | 10 | E/NE 14.8 | |
| Oggi h: 06:30 | Poco Nuvoloso | 23 | 21 | 88 | 1018 | 10 | NE 9.3 | |
| Oggi h: 06:00 | Poco Nuvoloso | 23 | 21 | 88 | 1018 | 10 | NE 9.3 | |
| Oggi h: 05:30 | Poco Nuvoloso | 22 | 21 | 94 | 1018 | 10 | E/NE 11.1 | |
| Oggi h: 05:00 | Poco Nuvoloso | 23 | 21 | 88 | 1018 | 10 | NE 9.3 | |
| Oggi h: 04:30 | Poco Nuvoloso | 23 | 21 | 88 | 1018 | 10 | E/NE 7.4 | |
| Oggi h: 04:00 | Poco Nuvoloso | 24 | 22 | 88 | 1018 | 10 | N 5.5 | |
| Oggi h: 03:30 | Poco Nuvoloso | 24 | 22 | 88 | 1019 | 10 | N 5.5 | |
| Oggi h: 03:00 | Nuvoloso | 24 | 22 | 88 | 1019 | 10 | N 5.5 | |
| Oggi h: 02:30 | Nuvoloso | 24 | 23 | 94 | 1019 | 10 | N 5.5 | |
| Oggi h: 02:00 | Nuvoloso | 24 | 22 | 88 | 1019 | 10 | NE 7.4 | |
| Oggi h: 01:30 | Nuvoloso | 24 | 22 | 88 | 1020 | 10 | NE 9.3 | |
| Oggi h: 01:00 | Nuvoloso | 25 | 23 | 88 | 1020 | 10 | E 7.4 | |
| Oggi h: 00:30 | Nuvoloso | 26 | 23 | 83 | 1020 | 10 | E 7.4 | |
| Oggi h: 00:00 | Nuvoloso | 26 | 23 | 83 | 1019 | 10 | E/NE 7.4 | |
| Ieri h: 23:30 | Nuvoloso | 26 | 23 | 83 | 1019 | 10 | N 3.7 | |
| Ieri h: 23:00 | Nuvoloso | 27 | 23 | 78 | 1019 | 10 | E/NE 7.4 | |
| Ieri h: 22:30 | Poco Nuvoloso | 27 | 23 | 78 | 1019 | 10 | E 9.3 | |
| Ieri h: 22:00 | Poco Nuvoloso | 27 | 22 | 74 | 1018 | 10 | NE 7.4 | |
| Ieri h: 21:30 | Poco Nuvoloso | 26 | 21 | 73 | 1018 | 10 | N 3.7 | |
| Ieri h: 21:00 | Poco Nuvoloso | 27 | 22 | 74 | 1017 | 10 | N 1.8 | |
| Ieri h: 20:30 | Poco Nuvoloso | 28 | 22 | 69 | 1017 | 10 | N 5.5 | |
| Ieri h: 20:00 | Poco Nuvoloso | 28 | 22 | 69 | 1017 | 10 | SO 11.1 | |
| Ieri h: 19:30 | Poco Nuvoloso | 29 | 22 | 66 | 1017 | 10 | SO 13 | |
| Ieri h: 19:00 | Poco Nuvoloso | 29 | 22 | 66 | 1017 | 10 | SO 13 | |
| Ieri h: 18:30 | Poco Nuvoloso | 30 | 22 | 62 | 1017 | 10 | SO 13 | |
| Ieri h: 18:00 | Poco Nuvoloso | 30 | 23 | 66 | 1017 | 10 | SO 14.8 | |
| Ieri h: 17:30 | Poco Nuvoloso | 30 | 22 | 62 | 1018 | 10 | O/SO 16.7 | |
| Ieri h: 17:00 | Poco Nuvoloso | 30 | 22 | 62 | 1018 | 10 | O/SO 16.7 | |
| Ieri h: 16:30 | Poco Nuvoloso | 30 | 22 | 62 | 1018 | 10 | O/SO 24 | |
| Ieri h: 16:00 | Poco Nuvoloso | 30 | 22 | 62 | 1018 | 10 | O/SO 24 | |
| Ieri h: 15:30 | Poco Nuvoloso | 31 | 22 | 58 | 1018 | 10 | O/SO 25.9 | |
| Ieri h: 15:00 | Poco Nuvoloso | 31 | 21 | 55 | 1018 | 10 | O/SO 27.8 | |
| Ieri h: 14:30 | Poco Nuvoloso | 31 | 22 | 58 | 1018 | 10 | SO 27.8 | |
| Ieri h: 14:00 | Poco Nuvoloso | 30 | 23 | 66 | 1019 | 10 | SO 29.6 | |



